Home   Weather   El Paso   Past weeks

Flag for USA Past Weather in El Paso, Texas, USA — Yesterday and Last 2 Weeks

Now
53 °F

Passing clouds.


Feels Like: 51 °F
Forecast: 46 / 81 °F
Wind: 6 mph from South

Location: El Paso International Airport

Current Time: Feb 22, 2017 at 8:58:01 am

Latest Report: Feb 22, 2017 at 7:51 am


Visibility: 10 mi

Pressure: 29.98 "Hg (26.14 "Hg at 1142m altitude)

Humidity: 48%

Dew Point: 34 °F

Location of El PasoLocation

Past Weather in El Paso — Graph

°F

El Paso Temperature Yesterday

Maximum temperature yesterday: 75 °F (at 2:51 pm)
Minimum temperature yesterday: 38 °F (at 6:51 am)
Average temperature yesterday: 59 °F

High & Low Weather Summary for the Past Weeks

 TemperatureHumidityPressure
High84 °F (Feb 11, 2:51 pm)86% (Feb 13, 12:51 pm)30.26 "Hg (Feb 13, 12:51 pm)
Low33 °F (Feb 16, 4:51 am)11% (Feb 11, 1:51 pm)29.52 "Hg (Feb 18, 4:51 pm)
Average55 °F42%29.97 "Hg
* Reported Feb 7 6:51 am — Feb 22 6:51 am, El Paso, Weather by CustomWeather, © 2017

Note: Actual official high and low records may vary slightly from our data, if they occured in-between our weather recording intervals... More about our weather records

Advertising

El Paso Weather History for the Previous 24 Hours

Scroll right to see more
 ConditionsComfort  
Time TempWeatherWind HumidityBarometerVisibility
6:51 am
Wed, Feb 22
49 °FPassing clouds.8 mph55%29.98 "Hg10 mi
5:51 am49 °FPassing clouds.3 mph50%29.98 "Hg10 mi
4:51 am55 °FClear.8 mph42%29.96 "Hg10 mi
3:51 am56 °FClear.3 mph39%29.96 "Hg10 mi
2:51 am56 °FClear.9 mph39%29.96 "Hg10 mi
1:51 am61 °FClear.9 mph31%29.98 "Hg10 mi
12:51 am67 °FClear.14 mph24%29.99 "Hg10 mi
11:51 pm
Tue, Feb 21
67 °FClear.12 mph23%30.00 "Hg10 mi
10:51 pm67 °FClear.14 mph24%30.03 "Hg10 mi
9:51 pm66 °FClear.13 mph28%30.04 "Hg10 mi
8:51 pm65 °FClear.9 mph29%30.06 "Hg10 mi
7:51 pm66 °FClear.8 mph28%30.07 "Hg10 mi
6:51 pm67 °FClear.9 mph26%30.08 "Hg10 mi
5:51 pm71 °FSunny.9 mph22%30.06 "Hg10 mi
4:51 pm74 °FSunny.8 mph19%30.03 "Hg10 mi
3:51 pm75 °FSunny.7 mph19%30.04 "Hg10 mi
2:51 pm75 °FSunny.3 mph19%30.05 "Hg10 mi
1:51 pm71 °FSunny.No wind23%30.09 "Hg10 mi
12:51 pm69 °FSunny.3 mph23%30.11 "Hg10 mi
11:51 am67 °FSunny.5 mph25%30.16 "Hg10 mi
10:51 am61 °FSunny.5 mph35%30.18 "Hg10 mi
9:51 am56 °FSunny.5 mph44%30.21 "Hg10 mi
8:51 am50 °FSunny.No wind52%30.22 "Hg10 mi
Weather by CustomWeather, © 2017

See weather overviewHow to use our weather pages